Time,TemperatureF,DewpointF,PressureIn,WindDirection,WindDirectionDegrees,WindSpeedMPH,WindSpeedGustMPH,Humidity,HourlyPrecipIn,Conditions,Clouds,dailyrainin,SoftwareType,DateUTC
2013-03-10 00:01:00,29.0,28.0,30.30,SE,144,0.0,0.0,95,0.00,,,0.38,,2013-03-10 05:01:00,
2013-03-10 00:11:00,29.0,28.0,30.30,SE,144,0.0,0.0,95,0.00,,,0.38,,2013-03-10 05:11:00,
2013-03-10 00:22:00,29.0,28.0,30.30,SE,144,0.0,0.0,96,0.00,,,0.38,,2013-03-10 05:22:00,
2013-03-10 00:32:00,29.0,28.0,30.30,SE,144,0.0,0.0,96,0.00,,,0.38,,2013-03-10 05:32:00,
2013-03-10 00:42:00,29.0,28.0,30.31,SE,144,0.0,0.0,96,0.00,,,0.38,,2013-03-10 05:42:00,
2013-03-10 00:52:00,29.0,28.0,30.31,SE,144,0.0,0.0,96,0.00,,,0.38,,2013-03-10 05:52:00,
2013-03-10 01:01:00,29.0,28.0,30.32,SE,144,0.0,0.0,96,0.00,,,0.38,,2013-03-10 06:01:00,
2013-03-10 01:11:00,29.0,28.0,30.31,SE,144,0.0,0.0,96,0.00,,,0.38,,2013-03-10 06:11:00,
2013-03-10 01:22:00,29.0,28.0,30.31,SE,144,0.0,0.0,96,0.00,,,0.38,,2013-03-10 06:22:00,
2013-03-10 01:32:00,29.0,28.0,30.31,SE,144,0.0,0.0,96,0.00,,,0.38,,2013-03-10 06:32:00,
2013-03-10 01:42:00,29.0,28.0,30.32,SE,144,0.0,0.0,96,0.00,,,0.38,,2013-03-10 06:42:00,
2013-03-10 01:52:00,29.0,28.0,30.32,SE,144,0.0,0.0,96,0.00,,,0.38,,2013-03-10 06:52:00,
2013-03-10 03:02:00,29.0,28.0,30.31,SE,144,0.0,0.0,97,0.00,,,0.38,,2013-03-10 07:02:00,
2013-03-10 03:11:00,29.0,28.0,30.31,SE,144,0.0,0.0,96,0.00,,,0.38,,2013-03-10 07:11:00,
2013-03-10 03:21:00,29.0,28.0,30.31,SE,144,0.0,0.0,96,0.00,,,0.38,,2013-03-10 07:21:00,
2013-03-10 03:32:00,29.0,28.0,30.31,SE,144,0.0,0.0,96,0.00,,,0.38,,2013-03-10 07:32:00,
2013-03-10 03:42:00,29.0,28.0,30.31,SE,144,0.0,0.0,96,0.00,,,0.38,,2013-03-10 07:42:00,
2013-03-10 03:52:00,29.0,28.0,30.31,SE,144,0.0,0.0,96,0.00,,,0.38,,2013-03-10 07:52:00,
2013-03-10 04:01:00,29.0,28.0,30.31,SE,144,0.0,1.0,96,0.00,,,0.38,,2013-03-10 08:01:00,
2013-03-10 04:11:00,29.0,28.0,30.31,SE,144,0.0,1.0,96,0.00,,,0.38,,2013-03-10 08:11:00,
2013-03-10 04:21:00,29.0,28.0,30.31,SE,144,0.0,0.0,96,0.00,,,0.38,,2013-03-10 08:21:00,
2013-03-10 04:31:00,29.0,28.0,30.31,SE,144,0.0,0.0,96,0.00,,,0.38,,2013-03-10 08:31:00,
2013-03-10 04:42:00,29.0,28.0,30.31,SE,144,0.0,2.0,96,0.00,,,0.38,,2013-03-10 08:42:00,
2013-03-10 04:52:00,29.0,28.0,30.31,SE,144,0.0,2.0,96,0.00,,,0.38,,2013-03-10 08:52:00,
2013-03-10 05:01:00,29.0,28.0,30.31,SE,144,0.0,0.0,96,0.00,,,0.38,,2013-03-10 09:01:00,
2013-03-10 05:11:00,29.0,28.0,30.31,SE,144,0.0,0.0,96,0.00,,,0.38,,2013-03-10 09:11:00,
2013-03-10 05:21:00,29.0,28.0,30.32,SE,144,0.0,0.0,96,0.00,,,0.38,,2013-03-10 09:21:00,
2013-03-10 05:31:00,29.0,28.0,30.32,SE,144,0.0,0.0,96,0.00,,,0.38,,2013-03-10 09:31:00,
2013-03-10 05:41:00,29.0,28.0,30.32,SE,144,0.0,0.0,96,0.00,,,0.38,,2013-03-10 09:41:00,
2013-03-10 05:52:00,28.0,27.0,30.32,SE,144,0.0,0.0,96,0.00,,,0.38,,2013-03-10 09:52:00,
2013-03-10 06:01:00,28.0,27.0,30.32,SE,144,0.0,0.0,96,0.00,,,0.38,,2013-03-10 10:01:00,
2013-03-10 06:11:00,28.0,27.0,30.32,SE,144,0.0,0.0,96,0.00,,,0.38,,2013-03-10 10:11:00,
2013-03-10 06:21:00,28.0,27.0,30.32,SE,144,0.0,0.0,96,0.00,,,0.38,,2013-03-10 10:21:00,
2013-03-10 06:32:00,28.0,27.0,30.32,SE,144,0.0,2.0,96,0.00,,,0.38,,2013-03-10 10:32:00,
2013-03-10 06:42:00,28.0,27.0,30.32,SE,144,0.0,1.0,96,0.00,,,0.38,,2013-03-10 10:42:00,
2013-03-10 06:52:00,28.0,27.0,30.32,SE,144,0.0,1.0,96,0.00,,,0.38,,2013-03-10 10:52:00,
2013-03-10 07:01:00,28.0,27.0,30.32,ESE,117,0.0,2.0,96,0.00,,,0.38,,2013-03-10 11:01:00,
2013-03-10 07:12:00,28.0,27.0,30.32,ESE,117,0.0,1.0,96,0.00,,,0.38,,2013-03-10 11:12:00,
2013-03-10 07:21:00,28.0,27.0,30.32,ESE,117,0.0,1.0,96,0.00,,,0.38,,2013-03-10 11:21:00,
2013-03-10 07:32:00,28.0,27.0,30.32,East,88,0.0,0.0,96,0.00,,,0.38,,2013-03-10 11:32:00,
2013-03-10 07:42:00,28.0,27.0,30.32,East,88,0.0,0.0,96,0.00,,,0.38,,2013-03-10 11:42:00,
2013-03-10 07:52:00,28.0,27.0,30.33,East,88,0.0,0.0,96,0.00,,,0.38,,2013-03-10 11:52:00,
2013-03-10 08:01:00,28.0,27.0,30.34,East,88,0.0,1.0,95,0.00,,,0.38,,2013-03-10 12:01:00,
2013-03-10 08:11:00,28.0,27.0,30.34,East,88,0.0,1.0,95,0.00,,,0.38,,2013-03-10 12:11:00,
2013-03-10 08:21:00,29.0,28.0,30.34,East,88,0.0,2.0,95,0.00,,,0.38,,2013-03-10 12:21:00,
2013-03-10 08:31:00,29.0,28.0,30.34,East,88,1.0,2.0,95,0.00,,,0.38,,2013-03-10 12:31:00,
2013-03-10 08:42:00,29.0,28.0,30.34,East,88,1.0,2.0,95,0.00,,,0.38,,2013-03-10 12:42:00,
2013-03-10 08:52:00,29.0,27.0,30.35,ESE,106,0.0,1.0,94,0.00,,,0.38,,2013-03-10 12:52:00,
2013-03-10 09:01:00,30.0,28.0,30.35,East,100,1.0,3.0,93,0.00,,,0.38,,2013-03-10 13:01:00,
2013-03-10 09:11:00,30.0,28.0,30.35,East,100,1.0,3.0,93,0.00,,,0.38,,2013-03-10 13:11:00,
2013-03-10 09:21:00,30.0,28.0,30.35,ESE,103,1.0,3.0,92,0.00,,,0.38,,2013-03-10 13:21:00,
2013-03-10 09:31:00,31.0,29.0,30.35,East,97,0.0,3.0,91,0.00,,,0.38,,2013-03-10 13:31:00,
2013-03-10 09:41:00,31.0,29.0,30.35,East,97,0.0,3.0,91,0.00,,,0.38,,2013-03-10 13:41:00,
2013-03-10 09:52:00,33.0,30.0,30.36,East,97,0.0,3.0,87,0.00,,,0.38,,2013-03-10 13:52:00,
2013-03-10 10:01:00,34.0,29.0,30.36,SSE,148,1.0,3.0,83,0.00,,,0.38,,2013-03-10 14:01:00,
2013-03-10 10:11:00,34.0,29.0,30.36,SSE,148,1.0,3.0,83,0.00,,,0.38,,2013-03-10 14:11:00,
2013-03-10 10:21:00,33.0,29.0,30.35,ESE,113,1.0,3.0,84,0.00,,,0.38,,2013-03-10 14:21:00,
2013-03-10 10:32:00,35.0,30.0,30.36,ESE,105,1.0,3.0,81,0.00,,,0.38,,2013-03-10 14:32:00,
2013-03-10 10:42:00,35.0,30.0,30.36,ESE,105,1.0,3.0,81,0.00,,,0.38,,2013-03-10 14:42:00,
2013-03-10 10:52:00,35.0,29.0,30.36,ESE,118,2.0,5.0,80,0.00,,,0.35,,2013-03-10 14:52:00,
2013-03-10 11:01:00,36.0,29.0,30.36,ESE,106,1.0,5.0,77,0.00,,,0.35,,2013-03-10 15:01:00,
2013-03-10 11:11:00,36.0,29.0,30.36,ESE,106,1.0,5.0,77,0.00,,,0.35,,2013-03-10 15:11:00,
2013-03-10 11:21:00,36.0,29.0,30.35,SE,142,1.0,4.0,77,0.00,,,0.35,,2013-03-10 15:21:00,
2013-03-10 11:32:00,36.0,29.0,30.36,East,98,0.0,3.0,77,0.00,,,0.35,,2013-03-10 15:32:00,
2013-03-10 11:42:00,36.0,29.0,30.36,East,98,0.0,3.0,77,0.00,,,0.35,,2013-03-10 15:42:00,
2013-03-10 11:52:00,36.0,29.0,30.35,ESE,117,1.0,3.0,76,0.00,,,0.32,,2013-03-10 15:52:00,
2013-03-10 12:01:00,37.0,30.0,30.35,ENE,64,2.0,3.0,75,0.00,,,0.32,,2013-03-10 16:01:00,
2013-03-10 12:12:00,37.0,30.0,30.35,ENE,64,2.0,3.0,75,0.00,,,0.32,,2013-03-10 16:12:00,
2013-03-10 12:21:00,38.0,30.0,30.34,SE,132,0.0,4.0,72,0.00,,,0.32,,2013-03-10 16:21:00,
2013-03-10 12:32:00,39.0,30.0,30.34,SSE,162,1.0,5.0,71,0.00,,,0.32,,2013-03-10 16:32:00,
2013-03-10 12:41:00,39.0,30.0,30.34,SSE,162,1.0,5.0,71,0.00,,,0.32,,2013-03-10 16:41:00,
2013-03-10 12:52:00,39.0,30.0,30.33,SSE,149,2.0,4.0,69,0.00,,,0.25,,2013-03-10 16:52:00,
2013-03-10 13:01:00,40.0,30.0,30.33,SSE,153,0.0,3.0,68,0.00,,,0.25,,2013-03-10 17:01:00,
2013-03-10 13:11:00,40.0,30.0,30.33,SSE,153,0.0,3.0,68,0.00,,,0.25,,2013-03-10 17:11:00,
2013-03-10 13:21:00,40.0,30.0,30.32,South,174,2.0,4.0,68,0.00,,,0.25,,2013-03-10 17:21:00,
2013-03-10 13:31:00,40.0,30.0,30.32,SSW,207,1.0,4.0,68,0.00,,,0.25,,2013-03-10 17:31:00,
2013-03-10 13:41:00,40.0,30.0,30.32,SSW,207,1.0,4.0,68,0.00,,,0.25,,2013-03-10 17:41:00,
2013-03-10 13:51:00,40.0,30.0,30.32,ESE,119,0.0,4.0,67,0.00,,,0.16,,2013-03-10 17:51:00,
2013-03-10 14:01:00,40.0,30.0,30.32,South,181,1.0,6.0,66,0.00,,,0.16,,2013-03-10 18:01:00,
2013-03-10 14:11:00,41.0,30.0,30.31,SE,143,0.0,4.0,65,0.00,,,0.16,,2013-03-10 18:11:00,
2013-03-10 14:22:00,41.0,30.0,30.31,SE,143,0.0,4.0,65,0.00,,,0.16,,2013-03-10 18:22:00,
2013-03-10 14:32:00,41.0,30.0,30.31,SSW,192,1.0,5.0,65,0.00,,,0.16,,2013-03-10 18:32:00,
2013-03-10 14:42:00,41.0,30.0,30.31,SSW,192,1.0,5.0,65,0.00,,,0.16,,2013-03-10 18:42:00,
2013-03-10 14:52:00,41.0,31.0,30.31,South,185,0.0,3.0,66,0.00,,,0.08,,2013-03-10 18:52:00,
2013-03-10 15:01:00,41.0,30.0,30.30,SSE,147,3.0,5.0,65,0.00,,,0.08,,2013-03-10 19:01:00,
2013-03-10 15:11:00,41.0,30.0,30.30,SSE,147,3.0,5.0,65,0.00,,,0.08,,2013-03-10 19:11:00,
2013-03-10 15:21:00,41.0,31.0,30.29,SSE,149,1.0,3.0,66,0.00,,,0.08,,2013-03-10 19:21:00,
2013-03-10 15:32:00,41.0,30.0,30.29,SE,124,1.0,3.0,64,0.00,,,0.08,,2013-03-10 19:32:00,
2013-03-10 15:42:00,41.0,30.0,30.29,SE,124,1.0,3.0,64,0.00,,,0.08,,2013-03-10 19:42:00,
2013-03-10 15:53:00,41.0,29.0,30.29,SW,230,1.0,3.0,63,0.00,,,0.02,,2013-03-10 19:53:00,
2013-03-10 16:02:00,41.0,30.0,30.29,SSE,155,1.0,3.0,64,0.00,,,0.02,,2013-03-10 20:02:00,
2013-03-10 16:12:00,41.0,30.0,30.29,SSE,155,1.0,3.0,64,0.00,,,0.02,,2013-03-10 20:12:00,
2013-03-10 16:22:00,41.0,30.0,30.29,SE,140,0.0,4.0,65,0.00,,,0.02,,2013-03-10 20:22:00,
2013-03-10 16:32:00,41.0,31.0,30.29,SSE,158,0.0,3.0,66,0.00,,,0.02,,2013-03-10 20:32:00,
2013-03-10 16:43:00,41.0,31.0,30.29,SSE,158,0.0,3.0,66,0.00,,,0.02,,2013-03-10 20:43:00,
2013-03-10 16:53:00,41.0,30.0,30.29,SE,139,0.0,4.0,65,0.00,,,0.00,,2013-03-10 20:53:00,
2013-03-10 17:02:00,41.0,31.0,30.29,SSE,160,0.0,3.0,66,0.00,,,0.00,,2013-03-10 21:02:00,
2013-03-10 17:12:00,41.0,31.0,30.29,SSE,160,0.0,3.0,66,0.00,,,0.00,,2013-03-10 21:12:00,
2013-03-10 17:23:00,41.0,31.0,30.28,SSE,149,1.0,2.0,68,0.00,,,0.00,,2013-03-10 21:23:00,
2013-03-10 17:32:00,40.0,31.0,30.28,SSE,149,0.0,2.0,69,0.00,,,0.00,,2013-03-10 21:32:00,
2013-03-10 17:42:00,40.0,31.0,30.28,SSE,149,0.0,2.0,69,0.00,,,0.00,,2013-03-10 21:42:00,
2013-03-10 17:53:00,40.0,31.0,30.28,SSE,149,1.0,2.0,69,0.00,,,0.00,,2013-03-10 21:53:00,
2013-03-10 18:02:00,40.0,31.0,30.28,SSE,149,0.0,2.0,70,0.00,,,0.00,,2013-03-10 22:02:00,
2013-03-10 18:12:00,40.0,31.0,30.28,SSE,149,0.0,2.0,70,0.00,,,0.00,,2013-03-10 22:12:00,
2013-03-10 18:22:00,39.0,30.0,30.28,SSE,149,0.0,2.0,71,0.00,,,0.00,,2013-03-10 22:22:00,
2013-03-10 18:32:00,39.0,31.0,30.27,SSE,149,1.0,3.0,72,0.00,,,0.00,,2013-03-10 22:32:00,
2013-03-10 18:43:00,39.0,31.0,30.27,SSE,149,1.0,3.0,72,0.00,,,0.00,,2013-03-10 22:43:00,
2013-03-10 18:53:00,38.0,30.0,30.28,SSE,149,0.0,3.0,73,0.00,,,0.00,,2013-03-10 22:53:00,
2013-03-10 19:03:00,38.0,30.0,30.28,SSE,151,1.0,2.0,74,0.00,,,0.00,,2013-03-10 23:03:00,
2013-03-10 19:12:00,37.0,30.0,30.28,SSE,154,0.0,3.0,76,0.00,,,0.00,,2013-03-10 23:12:00,
2013-03-10 19:23:00,37.0,30.0,30.28,SSE,154,0.0,3.0,76,0.00,,,0.00,,2013-03-10 23:23:00,
2013-03-10 19:33:00,36.0,30.0,30.28,SSE,152,0.0,3.0,78,0.00,,,0.00,,2013-03-10 23:33:00,
2013-03-10 19:42:00,36.0,30.0,30.28,SSE,152,0.0,3.0,78,0.00,,,0.00,,2013-03-10 23:42:00,
2013-03-10 19:52:00,36.0,30.0,30.29,SSE,152,0.0,2.0,80,0.00,,,0.00,,2013-03-10 23:52:00,
2013-03-10 20:02:00,35.0,30.0,30.28,SSE,157,0.0,3.0,81,0.00,,,0.00,,2013-03-11 00:02:00,
2013-03-10 20:12:00,35.0,30.0,30.28,SSE,157,0.0,3.0,81,0.00,,,0.00,,2013-03-11 00:12:00,
2013-03-10 20:23:00,35.0,30.0,30.29,SSE,157,0.0,0.0,82,0.00,,,0.00,,2013-03-11 00:23:00,
2013-03-10 20:33:00,35.0,30.0,30.29,SSE,160,0.0,1.0,83,0.00,,,0.00,,2013-03-11 00:33:00,
2013-03-10 20:43:00,35.0,30.0,30.29,SSE,160,0.0,1.0,83,0.00,,,0.00,,2013-03-11 00:43:00,
2013-03-10 20:53:00,35.0,31.0,30.29,SSE,160,0.0,0.0,84,0.00,,,0.00,,2013-03-11 00:53:00,
2013-03-10 21:03:00,34.0,30.0,30.29,SSE,160,0.0,2.0,84,0.00,,,0.00,,2013-03-11 01:03:00,
2013-03-10 21:13:00,34.0,30.0,30.29,SSE,160,0.0,2.0,84,0.00,,,0.00,,2013-03-11 01:13:00,
2013-03-10 21:23:00,34.0,30.0,30.29,SSE,160,0.0,0.0,85,0.00,,,0.00,,2013-03-11 01:23:00,
2013-03-10 21:32:00,34.0,30.0,30.28,South,179,0.0,2.0,85,0.00,,,0.00,,2013-03-11 01:32:00,
2013-03-10 21:42:00,34.0,30.0,30.28,South,179,0.0,2.0,85,0.00,,,0.00,,2013-03-11 01:42:00,
2013-03-10 21:53:00,34.0,30.0,30.28,South,179,1.0,2.0,86,0.00,,,0.00,,2013-03-11 01:53:00,
2013-03-10 22:02:00,34.0,30.0,30.27,South,186,0.0,2.0,86,0.00,,,0.00,,2013-03-11 02:02:00,
2013-03-10 22:12:00,34.0,30.0,30.27,South,186,0.0,2.0,86,0.00,,,0.00,,2013-03-11 02:12:00,
2013-03-10 22:23:00,34.0,31.0,30.28,SW,231,0.0,3.0,87,0.00,,,0.00,,2013-03-11 02:23:00,
2013-03-10 22:32:00,34.0,31.0,30.28,SW,231,0.0,2.0,87,0.00,,,0.00,,2013-03-11 02:32:00,
2013-03-10 22:42:00,34.0,31.0,30.28,SW,231,0.0,2.0,87,0.00,,,0.00,,2013-03-11 02:42:00,
2013-03-10 22:53:00,34.0,31.0,30.27,SW,231,0.0,0.0,87,0.00,,,0.00,,2013-03-11 02:53:00,
2013-03-10 23:02:00,34.0,31.0,30.27,WSW,244,0.0,1.0,87,0.00,,,0.00,,2013-03-11 03:02:00,
2013-03-10 23:12:00,34.0,31.0,30.27,WSW,244,0.0,1.0,87,0.00,,,0.00,,2013-03-11 03:12:00,
2013-03-10 23:22:00,34.0,31.0,30.28,WSW,244,0.0,0.0,87,0.00,,,0.00,,2013-03-11 03:22:00,
2013-03-10 23:32:00,34.0,31.0,30.27,WSW,244,0.0,2.0,88,0.00,,,0.00,,2013-03-11 03:32:00,
2013-03-10 23:42:00,34.0,31.0,30.27,WSW,244,0.0,2.0,88,0.00,,,0.00,,2013-03-11 03:42:00,
2013-03-10 23:53:00,34.0,31.0,30.27,WSW,244,0.0,2.0,88,0.00,,,0.00,,2013-03-11 03:53:00,